Location: Delia
(51.6321°N, 112.3740°W)
Time: 21:16:44
(UTC+00:00)

Envisat - Pass Details

Date: 08 December 2021
Orbit: 764 x 766 km, 98.2° (Epoch: 26 January)

Event Time Altitude Azimuth Distance (km) Brightness Sun altitude
Rises 13:01:29 0° 12° (NNE) 3,248 6.3 -20.7°
Reaches altitude 10° 13:03:49 10° 10° (N) 2,317 5.5 -20.3°
Maximum altitude 13:08:52 68° 289° (WNW) 828 2.9 -19.6°
Drops below altitude 10° 13:13:54 10° 207° (SSW) 2,299 5.3 -18.8°
Sets 13:16:12 0° 205° (SSW) 3,221 6.1 -18.5°
